• In Portugal
  • List of Countries
  • For 7 days
  • Water Temperature
  • Satellite Maps
  • Weather Map
  • Weather Widgets
  • user-avatar
    Login

    Hourly Weather Salyan

    Today, 23 June, Saturday

    Time Temperature Precipitation Wind Pressure Humidity
    00:00 +24°C° 0.8 mm 1 mps 648 mmHg 73%
    01:00 +23°C° 0.8 mm 1 mps 648 mmHg 74%
    02:00 +23°C° 0.8 mm 1 mps 648 mmHg 75%
    03:00 +23°C° 0.6 mm 1 mps 648 mmHg 75%
    04:00 +23°C° 0.6 mm 1 mps 648 mmHg 75%
    05:00 +23°C° 0 mm 1 mps 648 mmHg 76%
    06:00 +25°C° 0 mm 1 mps 648 mmHg 69%
    07:00 +27°C° 0 mm 1 mps 649 mmHg 61%
    08:00 +29°C° 0 mm 1 mps 650 mmHg 53%
    09:00 +30°C° 0.1 mm 1 mps 650 mmHg 49%
    10:00 +32°C° 0.1 mm 2 mps 650 mmHg 46%
    11:00 +34°C° 0.1 mm 2 mps 650 mmHg 43%
    12:00 +34°C° 0.2 mm 2 mps 650 mmHg 44%
    13:00 +34°C° 0.2 mm 2 mps 649 mmHg 45%
    14:00 +34°C° 0.2 mm 2 mps 649 mmHg 45%
    15:00 +32°C° 0.3 mm 2 mps 648 mmHg 47%
    16:00 +32°C° 0.3 mm 1 mps 648 mmHg 48%
    17:00 +31°C° 0.3 mm 1 mps 648 mmHg 49%
    18:00 +30°C° 0.1 mm 1 mps 647 mmHg 53%
    19:00 +28°C° 0.1 mm 1 mps 647 mmHg 57%
    20:00 +27°C° 0.1 mm 2 mps 647 mmHg 61%
    21:00 +26°C° 0.1 mm 2 mps 647 mmHg 62%
    22:00 +26°C° 0.1 mm 2 mps 647 mmHg 63%
    23:00 +25°C° 0.1 mm 2 mps 647 mmHg 64%

    Tomorrow, 24 June, Sunday

    Time Temperature Precipitation Wind Pressure Humidity
    00:00 +25°C° 0 mm 2 mps 647 mmHg 63%
    01:00 +25°C° 0 mm 2 mps 646 mmHg 63%
    02:00 +25°C° 0 mm 2 mps 646 mmHg 63%
    03:00 +25°C° 0 mm 2 mps 646 mmHg 62%
    04:00 +24°C° 0 mm 2 mps 646 mmHg 62%
    05:00 +24°C° 0 mm 2 mps 646 mmHg 61%
    06:00 +27°C° 0 mm 2 mps 647 mmHg 54%
    07:00 +30°C° 0 mm 2 mps 648 mmHg 47%
    08:00 +32°C° 0 mm 1 mps 649 mmHg 40%
    09:00 +34°C° 0 mm 2 mps 648 mmHg 39%
    10:00 +35°C° 0 mm 2 mps 648 mmHg 37%
    11:00 +36°C° 0 mm 3 mps 648 mmHg 36%
    12:00 +36°C° 0.1 mm 3 mps 648 mmHg 37%
    13:00 +36°C° 0.1 mm 3 mps 648 mmHg 39%
    14:00 +36°C° 0.1 mm 2 mps 647 mmHg 40%
    15:00 +35°C° 0.3 mm 2 mps 647 mmHg 42%
    16:00 +33°C° 0.3 mm 1 mps 647 mmHg 45%
    17:00 +33°C° 0.3 mm 1 mps 647 mmHg 47%
    18:00 +31°C° 0.2 mm 1 mps 646 mmHg 51%
    19:00 +29°C° 0.2 mm 2 mps 646 mmHg 56%
    20:00 +28°C° 0.2 mm 2 mps 646 mmHg 60%
    21:00 +27°C° 0 mm 2 mps 646 mmHg 61%
    22:00 +27°C° 0 mm 2 mps 646 mmHg 61%
    23:00 +26°C° 0 mm 2 mps 646 mmHg 62%

    Day after tomorrow, 25 June, Monday

    Time Temperature Precipitation Wind Pressure Humidity
    00:00 +26°C° 0 mm 2 mps 646 mmHg 61%
    01:00 +25°C° 0 mm 2 mps 646 mmHg 61%
    02:00 +25°C° 0 mm 2 mps 645 mmHg 61%
    03:00 +25°C° 0.1 mm 2 mps 645 mmHg 61%
    04:00 +24°C° 0.1 mm 2 mps 645 mmHg 61%
    05:00 +24°C° 0.1 mm 2 mps 645 mmHg 60%
    06:00 +27°C° 0 mm 2 mps 646 mmHg 53%
    07:00 +29°C° 0 mm 1 mps 647 mmHg 46%
    08:00 +32°C° 0 mm 1 mps 647 mmHg 39%
    09:00 +34°C° 0 mm 2 mps 647 mmHg 37%
    10:00 +35°C° 0 mm 3 mps 648 mmHg 36%
    11:00 +36°C° 0 mm 3 mps 648 mmHg 35%
    12:00 +35°C° 0.1 mm 3 mps 647 mmHg 37%
    13:00 +35°C° 0.1 mm 3 mps 647 mmHg 40%
    14:00 +35°C° 0.1 mm 3 mps 646 mmHg 43%
    15:00 +34°C° 0.8 mm 2 mps 646 mmHg 49%
    16:00 +31°C° 0.8 mm 2 mps 646 mmHg 54%
    17:00 +30°C° 0.8 mm 2 mps 645 mmHg 60%
    18:00 +29°C° 0.7 mm 2 mps 646 mmHg 64%
    19:00 +28°C° 0.7 mm 2 mps 646 mmHg 69%
    20:00 +26°C° 0.7 mm 2 mps 646 mmHg 73%
    21:00 +26°C° 0.3 mm 2 mps 646 mmHg 73%
    22:00 +26°C° 0.3 mm 2 mps 646 mmHg 73%
    23:00 +25°C° 0.3 mm 2 mps 645 mmHg 73%

    26 June, Tuesday

    Time Temperature Precipitation Wind Pressure Humidity
    00:00 +25°C° 0.1 mm 2 mps 645 mmHg 73%
    01:00 +25°C° 0.1 mm 2 mps 645 mmHg 73%
    02:00 +24°C° 0.1 mm 2 mps 645 mmHg 73%
    03:00 +24°C° 0.3 mm 2 mps 645 mmHg 74%
    04:00 +24°C° 0.3 mm 1 mps 645 mmHg 75%
    05:00 +23°C° 0.3 mm 1 mps 645 mmHg 76%
    06:00 +25°C° 0.1 mm 1 mps 646 mmHg 70%
    07:00 +27°C° 0.1 mm 2 mps 646 mmHg 64%
    08:00 +29°C° 0.1 mm 2 mps 647 mmHg 58%
    09:00 +30°C° 0.5 mm 2 mps 648 mmHg 56%
    10:00 +31°C° 0.5 mm 2 mps 648 mmHg 53%
    11:00 +32°C° 0.5 mm 2 mps 648 mmHg 50%
    12:00 +33°C° 1.2 mm 3 mps 648 mmHg 52%
    13:00 +33°C° 1.2 mm 3 mps 647 mmHg 54%
    14:00 +31°C° 1.2 mm 3 mps 647 mmHg 55%
    15:00 +31°C° 1.5 mm 2 mps 647 mmHg 59%
    16:00 +30°C° 1.5 mm 2 mps 646 mmHg 62%
    17:00 +29°C° 1.5 mm 2 mps 646 mmHg 66%
    18:00 +28°C° 0.8 mm 1 mps 646 mmHg 69%
    19:00 +27°C° 0.8 mm 1 mps 646 mmHg 72%
    20:00 +26°C° 0.8 mm 1 mps 646 mmHg 76%
    21:00 +25°C° 0.4 mm 1 mps 646 mmHg 77%
    22:00 +25°C° 0.4 mm 1 mps 647 mmHg 78%
    23:00 +25°C° 0.4 mm 2 mps 647 mmHg 79%

    27 June, Wednesday

    Time Temperature Precipitation Wind Pressure Humidity
    00:00 +24°C° 0.9 mm 2 mps 647 mmHg 80%
    01:00 +24°C° 0.9 mm 2 mps 646 mmHg 81%
    02:00 +24°C° 0.9 mm 1 mps 646 mmHg 82%
    03:00 +24°C° 0.3 mm 1 mps 646 mmHg 82%
    04:00 +24°C° 0.3 mm 1 mps 646 mmHg 81%
    05:00 +24°C° 0.3 mm 1 mps 646 mmHg 80%
    06:00 +24°C° 0.4 mm 1 mps 647 mmHg 77%
    07:00 +25°C° 0.4 mm 1 mps 647 mmHg 74%
    08:00 +26°C° 0.4 mm 1 mps 648 mmHg 71%
    09:00 +27°C° 0.4 mm 1 mps 648 mmHg 69%
    10:00 +27°C° 0.4 mm 2 mps 648 mmHg 68%
    11:00 +28°C° 0.4 mm 2 mps 648 mmHg 66%
    12:00 +28°C° 1.2 mm 2 mps 648 mmHg 68%
    13:00 +27°C° 1.2 mm 2 mps 648 mmHg 71%
    14:00 +27°C° 1.2 mm 2 mps 648 mmHg 73%
    15:00 +27°C° 1 mm 2 mps 648 mmHg 73%
    16:00 +27°C° 1 mm 2 mps 648 mmHg 73%
    17:00 +27°C° 1 mm 1 mps 648 mmHg 73%
    18:00 +26°C° 0.4 mm 1 mps 648 mmHg 76%
    19:00 +26°C° 0.4 mm 1 mps 648 mmHg 79%
    20:00 +25°C° 0.4 mm 1 mps 648 mmHg 82%
    21:00 +24°C° 0.8 mm 1 mps 648 mmHg 84%
    22:00 +24°C° 0.8 mm 1 mps 648 mmHg 86%
    23:00 +23°C° 0.8 mm 1 mps 648 mmHg 87%

    28 June, Thursday

    Time Temperature Precipitation Wind Pressure Humidity
    00:00 +23°C° 0.2 mm 1 mps 648 mmHg 87%
    01:00 +23°C° 0.2 mm 1 mps 647 mmHg 86%
    02:00 +23°C° 0.2 mm 1 mps 647 mmHg 85%
    03:00 +23°C° 0.2 mm 1 mps 647 mmHg 84%
    04:00 +23°C° 0.2 mm 1 mps 647 mmHg 84%
    05:00 +23°C° 0.2 mm 1 mps 648 mmHg 83%
    06:00 +24°C° 0.1 mm 1 mps 648 mmHg 78%
    07:00 +26°C° 0.1 mm 1 mps 649 mmHg 72%
    08:00 +27°C° 0.1 mm 1 mps 649 mmHg 67%
    09:00 +28°C° 0.3 mm 2 mps 649 mmHg 62%
    10:00 +30°C° 0.3 mm 2 mps 649 mmHg 57%
    11:00 +31°C° 0.3 mm 3 mps 649 mmHg 53%
    12:00 +31°C° 1 mm 3 mps 649 mmHg 56%
    13:00 +30°C° 1 mm 2 mps 649 mmHg 59%
    14:00 +30°C° 1 mm 2 mps 648 mmHg 62%
    15:00 +29°C° 1.2 mm 2 mps 648 mmHg 65%
    16:00 +28°C° 1.2 mm 2 mps 648 mmHg 68%
    17:00 +28°C° 1.2 mm 1 mps 647 mmHg 71%
    18:00 +27°C° 0.7 mm 1 mps 648 mmHg 74%
    19:00 +26°C° 0.7 mm 1 mps 648 mmHg 78%
    20:00 +25°C° 0.7 mm 1 mps 648 mmHg 81%
    21:00 +25°C° 1 mm 1 mps 648 mmHg 83%
    22:00 +24°C° 1 mm 1 mps 648 mmHg 84%
    23:00 +24°C° 1 mm 1 mps 648 mmHg 86%
    Show more